Regional Weather Roundup
Issued by NWS State College, PA

Home | Current Version | Previous Version | Text Only | Print | Product List | Glossary On
Versions: 1 2 3 4 5 6 7 8 9 10 11 12 13 14 15 16 17 18 19 20 21 22 23 24 25 26 27 28 29 30 31 32 33 34 35 36 37 38 39 40 41 42 43 44 45 46 47 48 49 50
000
ASUS41 KCTP 281810
RWRCTP

REGIONAL WEATHER ROUNDUP
NATIONAL WEATHER SERVICE STATE COLLEGE PA
200 PM EDT TUE MAR 28 2017

Note: "fair" indicates few or no clouds below 12,000 feet with no
significant weather and/or obstructions to visibility.

* = STATION THAT DOES NOT REPORT PRECIPITATION /E.G. RAIN...SNOW...ETC/
    THUNDER OR FOG.

PAZ002>004-007>009-013>016-020>023-029>032-281900-
WESTERN PENNSYLVANIA

CITY           SKY/WX    TMP DP  RH WIND       PRES   REMARKS
ERIE           CLOUDY    42  40  92 N12       29.99R FOG
MEADVILLE      CLOUDY    52  46  80 N10       29.94R
FRANKLIN*      CLOUDY    54  48  82 CALM      29.93R
NEW CASTLE     CLOUDY    54  50  86 N10       29.94R
BEAVER COUNTY  CLOUDY    52  52 100 N7        29.92R
BUTLER*        CLOUDY    55  52  88 N6        29.91R
PITTSBURGH INT CLOUDY    56  55  97 NW10      29.90R
PITTSBURGH     LGT RAIN  57  53  86 NW9       29.88R
INDIANA*       CLOUDY    59  57  94 W6        29.90F
LATROBE        LGT RAIN  59  57  94 W7        29.88F
WASHINGTON CO* CLOUDY    57  55  94 W6        29.92R
$$

PAZ004>006-010>012-017>019-024>028-033>037-041-042-045-046-049>053-281900-
CENTRAL PENNSYLVANIA

CITY           SKY/WX    TMP DP  RH WIND       PRES   REMARKS
BRADFORD       CLOUDY    52  50  93 N8        29.89S
DUBOIS         CLOUDY    58  50  75 VRB5      29.87F
CLEARFIELD       N/A    N/A N/A N/A MISG      29.87F
JOHNSTOWN      LGT RAIN  55  53  93 W9        29.87F FOG
ALTOONA        CLOUDY    62  55  77 NW7       29.87S
STATE COLLEGE  CLOUDY    55  54  94 CALM      29.87S FOG
WILLIAMSPORT   LGT RAIN  54  51  90 CALM      29.86S FOG
SELINSGROVE    LGT RAIN  55  53  93 N3        29.87S FOG
FT INDIANTOWN  LGT RAIN  54  54 100 SE9       29.83S
CAPITAL CITY   CLOUDY    56  51  84 CALM      29.85R
HARRISBURG     CLOUDY    52  51  97 NW10      29.84R
YORK           LGT RAIN  55  54  96 NE3       29.85S FOG
$$

PAZ038>040-043-044-047-048-054-055-060>062-067>071-281900-
EASTERN PENNSYLVANIA

CITY           SKY/WX    TMP DP  RH WIND       PRES   REMARKS
SCRANTON       RAIN      51  50  96 E6        29.87F FOG
MOUNT POCONO   LGT RAIN  46  46 100 NE7       29.85F VSB 1/4
ALLENTOWN      LGT RAIN  50  47  89 E12       29.85F
QUAKERTOWN*    CLOUDY    48  48 100 NE5       29.85F
READING        CLOUDY    51  51 100 NE6       29.84F FOG
LANCASTER      CLOUDY    54  53  97 SE3       29.85R
COATESVILLE    CLOUDY    52  52 100 CALM      29.86R
POTTSTOWN      CLOUDY    51  49  92 E6        29.85F
BLUE BELL      CLOUDY    48  48 100 E9        29.84F
DOYLESTOWN     CLOUDY    48  48 100 VRB3      29.84F
WILLOW GROVE   NOT AVBL
NORTH PHILA    CLOUDY    51  49  92 E10       29.87F
PHILADELPHIA   CLOUDY    53  51  93 NE12      29.84F
$$




USA.gov is the U.S. government's official web portal to all federal, state and local government web resources and services.